Location: Berville
(49.1893°N, 2.0748°E)
Time: 13:14:44
(UTC+00:00)

Lacrosse 5 - Pass Details

Date: 08 February 2023
Orbit: 714 x 724 km, 57.0° (Epoch: 09 March)

Event Time Altitude Azimuth Distance (km) Brightness Sun altitude
Rises 20:53:24 0° 296° (WNW) 3,144 6.1 -38.0°
Reaches altitude 10° 20:55:56 10° 304° (NW) 2,222 5.1 -38.4°
Enters shadow 20:57:26 18° 313° (NW) 1,720 4.3 -38.6°
